Location: Unspecified
(0.0000°N, 0.0000°E)
Time: 19:26:54
(UTC+00:00)

deb Explorer IX - All Passes

Search period start: 31 July 2015 00:00
Search period end: 10 August 2015 00:00
Orbit: 541 x 1154 km, 38.8° (Epoch: 30 July)

Date Brightness Start Highest point End Pass type
(mag) Time Alt. Az. Time Alt. Az. Time Alt. Az.
31 Jul - 06:27:18 10° S 06:31:20 17° SE 06:35:54 10° ESE daylight
31 Jul - 08:12:16 10° SW 08:19:33 78° SE 08:27:10 10° NE daylight
31 Jul - 10:01:50 10° W 10:07:50 24° NW 10:13:33 10° NNE daylight
31 Jul - 19:15:35 10° NNW 19:19:04 23° NE 19:22:24 10° E visible
31 Jul - 21:02:42 10° WNW 21:06:20 28° SW 21:09:50 10° SSE visible
01 Aug - 06:11:44 10° S 06:16:08 18° SE 06:21:06 10° E daylight
01 Aug - 07:57:02 10° SW 08:04:14 87° SE 08:11:54 10° NE daylight
01 Aug - 09:46:59 10° W 09:52:36 22° NW 09:57:58 10° N daylight
01 Aug - 19:00:08 10° NNW 19:04:01 28° NE 19:07:38 10° E visible
01 Aug - 20:47:49 10° W 20:51:16 24° SW 20:54:32 10° SSE visible
02 Aug - 05:56:14 10° S 06:00:55 20° SE 06:06:12 10° E daylight
02 Aug - 07:41:50 10° SW 07:48:56 84° NW 07:56:34 10° NE daylight
02 Aug - 09:32:11 10° W 09:37:23 19° NW 09:42:20 10° N daylight
02 Aug - 18:44:42 10° NNW 18:48:57 34° NE 18:52:49 10° ESE visible
02 Aug - 20:32:59 10° W 20:36:11 20° SW 20:39:10 10° S visible
03 Aug - 05:40:47 10° S 05:45:40 23° SE 05:51:14 10° E visible
03 Aug - 07:26:40 10° SW 07:33:37 75° NW 07:41:12 10° NE daylight
03 Aug - 09:17:29 10° WNW 09:22:10 17° NW 09:26:36 10° N daylight
03 Aug - 18:29:18 10° NNW 18:33:52 42° NE 18:37:55 10° ESE visible
03 Aug - 20:18:10 10° W 20:21:05 17° SW 20:23:44 10° S visible
04 Aug - 05:25:22 10° SSW 05:30:25 25° SE 05:36:12 10° E visible
04 Aug - 07:11:31 10° WSW 07:18:19 67° NW 07:25:47 10° NE daylight
04 Aug - 09:02:53 10° WNW 09:06:58 15° NW 09:10:44 10° N daylight
04 Aug - 18:13:55 10° NW 18:18:45 51° NE 18:22:59 10° ESE daylight
04 Aug - 20:03:27 10° WSW 20:05:58 14° SW 20:08:13 10° S visible
05 Aug - 05:09:58 10° SSW 05:15:09 28° SE 05:21:06 10° E visible
05 Aug - 06:56:24 10° WSW 07:03:00 59° NW 07:10:20 10° NE daylight
05 Aug - 08:48:29 10° WNW 08:51:46 13° NNW 08:54:42 10° N daylight
05 Aug - 17:58:32 10° NW 18:03:37 63° NE 18:07:59 10° ESE daylight
05 Aug - 19:48:52 10° WSW 19:50:51 12° SW 19:52:34 10° SSW visible
06 Aug - 04:54:37 10° SSW 04:59:52 31° SE 05:05:56 10° ENE visible
06 Aug - 06:41:18 10° WSW 06:47:42 51° NW 06:54:50 10° NE daylight
06 Aug - 08:34:29 10° NW 08:36:34 11° NNW 08:38:13 10° NNW daylight
06 Aug - 15:58:57 10° NNE 16:00:19 11° NNE 16:01:54 10° NE daylight
06 Aug - 17:43:10 10° NW 17:48:28 76° NE 17:52:57 10° SE daylight
06 Aug - 19:34:37 10° SW 19:35:42 11° SW 19:36:31 10° SSW visible
07 Aug - 04:39:17 10° SSW 04:44:35 35° SE 04:50:45 10° ENE visible
07 Aug - 06:26:15 10° WSW 06:32:24 45° NW 06:39:18 10° NNE daylight
07 Aug - 15:42:30 10° N 15:45:12 14° NNE 15:47:56 10° ENE daylight
07 Aug - 17:27:48 10° NW 17:33:16 89° WSW 17:37:52 10° SE daylight
08 Aug - 04:23:59 10° SSW 04:29:17 39° SE 04:35:31 10° ENE visible
08 Aug - 06:11:13 10° WSW 06:17:06 39° NW 06:23:43 10° NNE daylight
08 Aug - 15:26:28 10° N 15:30:03 16° NNE 15:33:31 10° ENE daylight
08 Aug - 17:12:26 10° NW 17:18:03 76° SW 17:22:45 10° SE daylight
09 Aug - 04:08:41 10° SSW 04:13:58 44° SE 04:20:14 10° ENE visible
09 Aug - 05:56:14 10° WSW 06:01:50 34° NW 06:08:05 10° NNE daylight
09 Aug - 15:10:34 10° N 15:14:53 20° NE 15:18:54 10° E daylight
09 Aug - 16:57:05 10° WNW 17:02:49 65° SW 17:07:36 10° SE daylight
